Zurück zum Katalog

HULIANWANG DIGUI-77

AktivKommunikationLEO
NORAD 65309·PAYLOAD·🇨🇳 China

Gestartet Aug 25, 2025 von Wenchang Space Launch Site

Loading…

Nächste Überflüge (nächste 24 Stunden)

TLE

AktuellSource: Space-Track

Epoche: Sep 14, 2026, 13:01 UTC

1 65309U 25187E   26257.54257393 -.00000098  00000-0  55752-4 0  9992
2 65309  50.0031 245.5381 0000858 339.4239  20.6599 13.29326416 51583

Verfolge HULIANWANG DIGUI-77 in Echtzeit mit AllMySat

Download on the App Store